Regional Weather Roundup
Issued by NWS

Home | Current Version | Previous Version | Graphics & Text | Print | Product List | Glossary On
Versions: 1 2 3 4 5 6 7 8 9 10 11 12 13 14 15 16 17 18 19 20 21 22 23 24 25 26 27 28
000
ASUS45 KTFX 191510
RWRMT
MONTANA REGIONAL WEATHER ROUNDUP
NATIONAL WEATHER SERVICE GREAT FALLS MT
800 AM MST MON FEB 19 2018

NOTE: "FAIR" INDICATES FEW OR NO CLOUDS BELOW 12000 FEET WITH NO
SIGNIFICANT WEATHER AND/OR OBSTRUCTIONS TO VISIBILITY.

MTZ001>007-043-191600-
WEST OF THE DIVIDE

CITY           SKY/WX    TMP DP  RH WIND       PRES   REMARKS
KALISPELL      MOCLDY     0 -10  63 NE9       30.01R WCI -15
MISSOULA       CLOUDY     4  -6  63 SE14      29.98R WCI -14
BUTTE          FAIR     -22 -27  77 CALM      29.77R
MULLAN PASS    CLOUDY    -6 -10  83 SE5       29.63S
ANACONDA         N/A     -9 -15  77 CALM      29.84R
DEER LODGE       N/A     -6 -13  71 CALM      29.88R
HAMILTON         N/A      3  -2  78 MISG      29.92R
PLAINS           N/A      7  -5  57 CALM      30.02R
RONAN            N/A      1  -6  71 CALM      29.99R
$$

MTZ008-052>055-191600-
SOUTHWEST MONTANA

CITY           SKY/WX    TMP DP  RH WIND       PRES   REMARKS
BOZEMAN        CLOUDY    -7 -13  75 N12       29.87R HAZE    WCI -26
DILLON         LGT SNOW -12 -12 100 NE8       29.76R FOG     WCI -29
ENNIS          MOCLDY   -13 -18  77 SE10      29.79R WCI -32
W YELLOWSTONE  CLOUDY    -2  -9  71 N5        29.54R
THREE FORKS      N/A     -5 -12  71 W5        29.89R
TWIN BRIDGES     N/A     -5 -17  56 N17       29.80R WCI -27
$$

MTZ009-010-012-014-046-048-049-054-191600-
EAST SLOPES AND CENTRAL MONTANA

CITY           SKY/WX    TMP DP  RH WIND       PRES   REMARKS
CUT BANK       CLOUDY    -9 -12  87 W3        30.00R FOG
GREAT FALLS    CLOUDY    -5 -10  79 NW3       30.02R HAZE
MALMSTROM AFB  LGT SNOW  -6  -9  84 CALM      30.05S
HELENA         FAIR      -5 -13  68 W8        29.98R WCI -20
AUGUSTA        LGT SNOW  -7 -11  83 N3        29.93S
BOWMANS CRNR   LGT SNOW  -9 -12  83 NW5       29.93S
CONRAD           N/A     -3  -9  75 W5        30.04S
FAIRFIELD      LGT SNOW  -6 -11  77 NW5       29.99S FOG
POWER          LGT SNOW  -6 -11  81 N7        30.00S FOG     WCI -21
RAYNESFORD     FLURRIES  -7 -11  81 CALM      29.99R
ULM            LGT SNOW  -5  -9  83 CALM      30.04R FOG
WHITE SULPHUR    N/A    -13 -17  84 W7        29.83R WCI -29
$$

MTZ011-013-016-021-045-047-050-051-191600-
NORTH CENTRAL MONTANA

CITY           SKY/WX    TMP DP  RH WIND       PRES   REMARKS
HAVRE          LGT SNOW  -6 -10  83 SW6       30.15R FOG     WCI -19
LEWISTOWN      CLOUDY    -7 -10  87 SW3       29.96R FOG
N BAR RANCH    LGT SNOW  -6 -13  71 CALM      29.94R
CHINOOK          N/A     -8 -13  77 CALM      30.18R
GEYSER         LGT SNOW  -5  -9  83 W5        29.97R
WINIFRED       LGT SNOW  -5  -8  84 SW6       30.01R WCI -17
$$

MTZ017>020-022>027-061-062-191600-
NORTHEAST MONTANA

CITY           SKY/WX    TMP DP  RH WIND       PRES   REMARKS
GLASGOW        FAIR      -8 -13  78 NW7       30.16R WCI -23
GLENDIVE       CLOUDY     0  -5  79 N3        30.14S
JORDAN           N/A      0  -5  79 N9        30.10R WCI -15
MALTA          CLOUDY    -9 -15  77 CALM      30.17R HAZE
SIDNEY         MOCLDY    -7 -12  79 CALM      30.20R
WOLF POINT     CLOUDY    -8 -14  74 CALM      30.20S
PLENTYWOOD       N/A    -11 -15  84 CALM      30.17R
POPLAR           N/A     -9 -15  77 CALM      30.21S
SCOBEY           N/A    -17 -27  60 CALM      30.12R
$$

MTZ028>42-056>058-191600-
SOUTHCENTRAL AND SOUTHEAST MONTANA

CITY           SKY/WX    TMP DP  RH WIND       PRES   REMARKS
BAKER          CLOUDY     0  -3  87 E6        30.06R WCI -12
BILLINGS       LGT SNOW  -2  -6  83 N9        29.97F FOG     WCI -18
LIVINGSTON     FAIR      -7 -10  87 E10       29.86S WCI -25
MILES CITY     LGT SNOW   0  -3  87 N7        30.10R FOG     WCI -13
BIG TIMBER     CLOUDY    -8 -11  84 E3        29.93S
EKALAKA          N/A     -1  -9  69 E7        29.96R WCI -14
FORSYTH          N/A      1  -2  85 CALM      30.09R
HARLOWTON      FLURRIES  -5  -9  83 SE6       29.93R WCI -18
LAUREL           N/A     -2  -8  78 N8        30.00S WCI -17
$$

REGIONAL REPORTS...DAKOTAS

CITY           SKY/WX    TMP DP  RH WIND       PRES   REMARKS
WILLISTON      FAIR     -11 -14  86 CALM      30.20R
MINOT          FAIR      -5 -13  68 S3        30.21R
DICKINSON      CLOUDY     0 -10  63 NE6       30.08F WCI -12
BEACH          CLOUDY    -2  -6  84 NW3       30.12S
CROSBY         FAIR     -15 -20  76 SW7       30.21R WCI -31
TIOGA          FAIR     -15 -18  84 CALM      30.17R
BISMARCK       PTSUNNY    2  -4  76 NE9       30.21R WCI -13
GRAND FORKS    CLOUDY    -1  -7  75 N15       30.26R WCI -21
FARGO          PTSUNNY    5  -2  72 N17       30.20R WCI -14
BUFFALO SD       N/A      1  -6  72 NE13      29.96R WCI -17
RAPID CITY     LGT SNOW   2  -2  83 N9        30.00S FOG     WCI -13
$$

REGIONAL REPORTS...WYOMING/IDAHO/WASHINGTON

CITY           SKY/WX    TMP DP  RH WIND       PRES   REMARKS
GILLETTE       LGT SNOW  -1  -5  82 N10       29.86R VSB 1   WCI -17
SHERIDAN       LGT SNOW   0  -4  83 N3        29.92R FOG
BUFFALO WY     SNOW      -1  -6  79 N5        29.81R VSB 1/2
CODY           FLURRIES  -6 -11  79 NE10      29.79R WCI -24
YELLOWSTONE LA   N/A     -2  -6  83 CALM      29.46R
IDAHO FALLS    CLOUDY    14   3  61 N14       29.59R WCI  -1
SALMON         FLURRIES   9   2  73 NE9       29.80  WCI  -4
BOISE          FAIR      21  18  88 CALM      29.72R
SPOKANE        MOCLDY     9  -3  58 N12       29.98R WCI  -6
$$

REGIONAL REPORTS...ALBERTA

CITY           SKY/WX    TMP DP  RH WIND       PRES   REMARKS
CALGARY        PTCLDY    -6 -11  77 SW3       30.00S
EDMONTON       CLEAR      0  -9  65 SW12      30.00F WCI -18
FORT MCMURRAY  MOCLDY     3  -2  78 SW9       29.87S WCI -11
HIGH LEVEL     MOCLDY    16   5  62 W3        29.87S
LETHBRIDGE     MOCLDY   -15 -20  76 SW9       30.07S WCI -33
LLOYDMINSTER   MOCLDY    -4  -9  77 SW14      30.01R WCI -24
MEDICINE HAT   MOCLDY   -11 -17  77 SW14      30.14F WCI -33
MILK RIVER       N/A     -9 -15  77 NW8         N/A  WCI -26
PEACE RIVER    CLOUDY     7  -4  61 W12       29.95F WCI  -9
PINCHER CREEK  CLEAR    -17 -20  83 W9        29.99S WCI -36
WATERTON GATE    N/A    -22 -27  76 SW1         N/A
$$

REGIONAL REPORTS...SASKATCHEWAN

CITY           SKY/WX    TMP DP  RH WIND       PRES   REMARKS
CORONACH         N/A    -17 -22  76 NW1         N/A
CYPRESS HILLS    N/A     -9 -17  70 CALM        N/A
ESTEVAN        CLOUDY   -17 -22  76 W7        30.20R WCI -33
MOOSE JAW        N/A     -9 -15  77 SW7         N/A  WCI -24
PRINCE ALBERT  PTCLDY   -29 -36  68 SW5       30.13F
REGINA         PTCLDY   -20 -26  76 SW6       30.19R WCI -36
ROCKGLEN         N/A     -9 -13  84 SW3         N/A
SASKATOON      CLEAR    -17 -22  76 SW8       30.15S WCI -34
SWIFT CURRENT  FLURRIES -11 -17  77 SW9       30.08  WCI -29
VAL MARIE        N/A    -22 -27  76 SW1         N/A
$$




USA.gov is the U.S. government's official web portal to all federal, state and local government web resources and services.